Wind_Speed
17 17 16 16 15 14 12 10 9 8 6 5 5 5 6 7 8 9 9 10 10 11 11 12 12 13 14 15 15 15 14 14 15 16 17 19 19 20 20 20 20 20 20 20 20 21 21 21 21 21 20 20 20 20 21 21 21 21 22 23 24 24 25 26 27 27 27 29 29 31 31 29 30 32 35 35 33 33 33 35 36 36 36 36 36 36 36 37
16 16 16 16 15 13 11 9 7 6 5 5 6 6 7 8 9 9 9 9 10 11 11 11 11 12 13 14 14 13 14 15 17 18 19 19 19 19 19 19 19 19 19 19 20 20 20 20 20 20 19 19 19 19 20 20 21 21 22 23 24 24 25 26 26 26 26 28 29 30 30 28 30 32 34 35 35 35 35 36 37 38 38 38 38 38 39 39
15 15 15 15 13 11 9 7 5 4 5 5 6 7 8 8 8 8 8 9 9 10 10 11 11 12 12 12 13 13 15 17 18 19 19 18 18 18 18 18 18 18 18 18 18 18 18 18 18 19 19 19 20 20 20 21 21 22 23 24 24 25 25 25 26 26 27 28 30 31 30 30 31 33 34 35 35 36 37 37 38 39 39 40 40 40 40 41
15 14 14 12 11 9 6 5 4 4 5 5 6 7 7 7 7 7 7 8 9 10 10 11 11 11 11 11 13 14 16 18 18 17 17 17 17 17 17 17 17 16 16 16 16 16 17 17 18 19 19 20 21 21 21 21 22 22 23 24 25 26 26 25 27 28 29 30 30 32 32 32 32 33 35 36 36 36 37 38 39 40 40 41 42 42 42 42
13 13 11 10 8 7 6 5 5 4 5 5 5 5 5 5 5 4 5 6 8 8 9 10 10 10 11 13 14 16 17 16 16 16 16 16 15 15 16 15 15 14 14 15 15 16 17 18 19 19 20 21 21 21 22 22 22 23 23 25 25 26 26 26 27 28 29 30 31 32 33 33 34 35 36 37 38 38 39 40 40 41 42 43 43 44 44 45
13 12 11 10 9 8 7 6 6 6 5 4 3 2 3 4 3 2 4 6 6 7 8 9 10 11 13 14 15 15 15 14 14 15 14 14 14 14 14 14 14 14 15 16 16 17 18 19 19 20 20 20 21 22 22 22 22 23 23 24 25 25 26 27 28 29 30 31 32 33 34 35 36 37 37 38 39 40 41 41 42 43 43 44 45 45 46 47
13 13 12 11 11 9 9 8 7 6 5 4 2 1 0 3 2 2 4 5 6 7 8 10 11 12 13 13 13 13 13 13 13 13 13 13 13 13 14 14 15 15 16 17 17 18 19 19 20 20 21 21 22 22 22 22 22 23 23 24 25 26 26 28 29 30 30 32 33 34 35 35 36 37 37 39 40 41 42 42 43 43 44 44 45 46 47 48
14 13 13 12 11 10 9 8 6 5 5 4 2 2 2 1 1 3 4 6 7 8 9 10 11 11 11 12 12 12 12 11 11 12 13 13 14 14 15 16 16 16 17 18 19 19 20 20 21 21 21 21 22 22 22 23 24 24 25 26 26 27 28 29 30 30 31 32 33 33 34 34 35 36 37 38 40 41 41 42 43 44 44 45 46 47 47 48
14 14 13 12 12 10 9 7 6 5 5 4 3 3 2 1 2 3 5 7 8 9 9 10 10 10 10 10 10 11 11 11 12 13 14 15 15 16 16 16 17 17 19 20 20 20 20 20 21 21 21 22 22 22 23 25 25 26 27 28 28 28 29 29 30 31 31 31 31 31 32 32 34 35 36 38 39 40 41 42 43 44 45 46 47 47 48 49
15 14 13 12 11 9 8 7 6 5 5 4 4 3 1 1 2 4 6 7 7 8 8 8 9 9 8 9 11 11 11 13 14 15 15 15 16 16 17 18 19 19 20 20 20 20 20 20 21 22 22 23 23 24 25 26 26 27 28 29 29 30 30 30 30 31 31 31 32 31 31 32 33 35 36 37 38 39 40 42 43 44 46 47 48 49 50 50
15 14 13 12 10 9 8 7 6 5 5 4 3 2 2 2 3 5 6 7 7 7 7 7 7 8 10 12 12 11 13 15 15 16 16 16 17 18 19 19 19 19 19 19 19 19 20 21 22 23 23 24 26 26 27 28 28 29 30 31 31 31 31 32 31 31 31 32 32 32 32 32 33 34 36 37 38 40 41 43 44 45 46 47 48 49 49 50
15 14 12 11 10 8 7 6 5 5 5 4 4 3 3 3 5 6 6 7 7 7 7 8 9 11 13 13 12 13 14 15 16 16 16 17 18 18 18 17 18 18 18 19 19 20 21 22 23 25 25 26 27 28 29 29 30 31 31 31 31 31 31 31 32 32 31 33 33 33 34 34 33 34 37 39 40 42 43 44 45 46 47 48 48 48 49 50
14 13 12 10 9 7 6 6 5 5 5 5 4 4 4 5 6 6 6 7 8 9 10 11 11 13 13 12 13 15 15 15 15 16 16 16 16 16 16 16 17 18 18 20 21 21 23 23 24 26 26 27 28 29 30 30 30 31 31 31 31 32 32 31 33 34 34 35 36 36 36 37 36 37 40 42 43 44 45 46 46 47 48 48 48 49 49 50
14 12 11 9 8 7 6 6 5 5 5 4 4 4 5 6 6 7 8 9 10 11 12 13 12 13 13 12 14 14 14 14 15 15 15 15 15 16 17 17 18 20 20 22 23 24 25 26 27 28 28 29 29 30 30 30 30 31 32 32 32 33 33 34 34 35 37 37 37 38 38 39 40 41 43 45 46 46 46 47 48 49 49 49 50 50 51 51
13 12 10 9 8 7 6 6 5 5 4 4 5 5 7 8 8 10 11 11 12 12 13 14 13 12 13 12 13 13 13 14 15 15 15 16 16 17 19 20 20 22 23 24 25 26 27 28 29 29 30 30 30 30 30 31 31 31 32 33 33 33 34 34 34 35 36 36 37 40 41 42 43 43 46 47 47 48 49 49 50 51 51 52 52 53 54 54
13 11 10 8 7 7 6 6 5 5 5 6 7 8 9 10 11 12 12 12 12 13 13 14 13 12 13 12 12 13 14 14 15 15 16 17 18 18 20 22 23 24 25 26 27 28 29 29 30 30 31 31 30 31 32 33 33 33 33 33 33 33 33 34 35 35 37 37 38 42 43 44 44 45 47 48 49 51 51 51 52 52 53 54 55 56 57 58
11 10 9 8 8 7 7 6 7 7 8 9 10 11 12 13 13 13 13 12 12 13 13 13 12 12 13 12 12 14 15 15 16 16 17 19 21 21 22 24 25 26 27 27 28 29 29 30 31 31 31 31 32 33 34 34 34 33 33 33 33 34 34 35 37 37 38 39 40 43 45 46 47 48 49 50 52 53 53 53 54 55 55 56 57 59 60 60
10 9 9 9 8 8 8 9 10 11 12 12 13 13 13 14 14 13 13 13 12 13 13 12 12 13 13 13 13 15 16 17 17 18 20 21 22 24 24 25 26 27 28 28 29 29 30 31 31 31 31 32 33 33 33 33 33 34 34 34 34 35 37 38 39 39 40 41 42 44 46 48 49 49 50 52 54 54 54 55 57 58 59 59 60 61 62 62
10 10 10 10 10 11 12 13 14 14 14 14 14 14 13 14 13 12 11 12 12 14 13 13 13 13 14 14 15 16 17 18 20 21 22 22 24 25 25 26 27 28 28 29 30 30 31 31 32 32 33 34 33 32 33 33 35 36 37 37 38 39 39 40 41 42 42 42 43 46 48 50 52 51 51 53 55 55 55 56 58 60 61 62 63 63 63 65
11 11 12 13 14 16 16 17 17 16 16 15 14 14 13 12 11 10 10 12 14 14 13 13 14 14 15 16 16 17 18 19 20 21 22 23 24 26 26 27 27 28 29 30 31 31 32 33 33 34 34 35 35 35 35 36 37 37 38 39 40 41 41 41 42 43 44 44 43 47 48 49 53 54 52 53 55 55 56 58 59 61 63 64 65 65 67 69
14 15 16 18 19 19 19 19 18 18 17 16 14 14 13 11 10 10 11 14 14 13 13 13 14 14 15 17 17 17 19 19 20 21 23 24 26 27 27 28 28 29 30 31 32 32 33 34 34 35 35 36 37 37 38 38 38 39 39 40 40 42 41 41 43 44 45 46 45 46 48 49 53 57 55 54 56 57 59 61 64 66 68 69 71 72 74 76
19 20 21 21 21 20 20 19 19 18 17 15 14 12 12 12 13 13 14 14 14 13 13 14 14 15 16 18 19 19 21 22 23 24 25 26 27 27 27 28 29 30 31 31 31 31 32 33 33 34 35 36 36 37 38 38 39 39 39 40 40 42 41 39 41 44 47 49 48 48 49 50 53 57 56 56 59 62 65 68 70 71 73 75 77 79 80 82
23 23 23 22 22 21 20 19 18 17 16 14 12 12 13 15 16 16 15 15 14 14 15 14 15 17 17 20 22 22 23 25 25 25 26 26 26 27 28 29 29 30 31 31 31 31 31 31 32 33 34 34 35 35 36 36 37 38 39 40 40 42 43 42 41 43 46 50 52 52 51 51 53 58 60 61 65 68 71 73 74 75 77 80 82 83 84 85
25 24 24 23 22 21 19 18 17 16 15 13 13 15 16 16 16 16 15 15 15 14 15 15 17 19 20 21 23 23 24 25 25 25 26 26 26 27 28 29 29 30 30 30 30 30 31 31 32 32 32 33 33 33 34 35 37 39 40 41 42 43 45 47 47 47 46 48 52 54 54 52 55 63 67 67 69 71 72 73 75 78 80 82 84 86 87 88
26 25 24 22 21 20 19 17 15 15 15 16 17 18 17 17 16 16 15 15 14 13 15 17 19 21 21 22 23 24 24 25 25 26 26 26 27 28 28 28 29 29 29 29 30 30 31 31 32 32 32 32 33 34 35 36 38 40 41 42 44 46 46 48 49 50 49 49 52 57 59 56 56 64 69 69 70 71 71 73 76 79 82 84 86 88 89 90
25 23 22 21 20 19 18 16 16 17 19 19 19 18 17 16 15 15 15 14 15 15 16 18 20 21 22 22 23 24 25 26 26 27 27 27 27 28 28 29 29 30 29 29 30 31 31 31 32 33 34 34 35 37 38 39 39 41 42 44 45 47 48 48 49 51 52 53 55 59 63 62 59 62 68 69 71 72 72 76 79 81 84 86 88 89 91 92
23 22 21 20 19 18 17 18 19 20 20 20 19 18 17 15 14 13 13 14 16 17 18 19 21 22 23 23 25 26 26 27 27 28 28 28 28 28 28 29 29 30 30 30 31 31 31 32 33 34 35 36 37 38 39 40 41 42 43 45 46 47 48 49 51 53 54 55 57 59 62 64 62 62 67 70 71 73 75 78 81 84 85 86 88 91 93 94
22 22 21 20 19 19 20 21 22 21 20 19 17 16 16 15 14 14 14 15 18 19 20 21 22 23 24 25 26 26 27 27 27 28 28 28 29 29 29 29 29 30 31 31 32 32 32 33 34 34 36 37 38 39 40 41 43 44 44 45 47 48 50 51 53 54 56 57 57 58 61 65 64 62 66 71 73 76 78 81 83 85 86 88 90 92 94 96
22 21 20 20 21 22 23 22 21 19 18 17 16 15 15 15 16 16 16 17 19 21 22 22 23 24 26 26 27 27 28 28 27 28 27 28 29 29 29 30 30 31 31 32 32 32 33 34 35 36 36 37 38 40 42 43 44 45 47 48 50 52 53 54 54 55 57 58 58 60 62 66 67 63 66 72 74 77 80 82 84 86 88 91 93 95 97 98
21 21 21 23 24 24 23 21 19 18 16 15 15 15 16 17 18 17 18 19 21 22 22 22 23 26 27 27 27 27 28 28 29 29 29 29 29 30 31 31 32 32 30 30 31 32 33 34 34 35 37 38 40 42 43 45 47 48 51 52 52 53 54 55 56 57 58 57 58 60 62 65 68 68 69 72 75 77 77 79 84 87 90 93 96 98 100 100
21 22 24 25 25 23 21 19 17 16 15 15 16 17 18 19 18 19 20 21 21 22 23 23 24 26 26 26 26 27 27 28 29 29 29 30 30 30 31 31 31 32 31 32 33 33 33 34 36 37 39 41 43 44 46 48 49 51 53 55 55 55 54 56 57 58 59 58 59 61 62 65 68 71 73 75 76 77 79 81 85 89 92 94 97 99 99 98
23 25 25 25 23 21 19 17 16 15 15 16 18 19 19 19 19 20 21 21 21 22 23 23 25 25 25 25 26 27 28 28 28 28 28 29 29 30 32 32 33 34 35 36 36 36 36 38 41 43 43 45 48 48 48 50 51 53 55 57 59 59 58 59 60 60 60 60 60 63 66 67 68 71 74 76 78 79 81 85 88 91 94 95 96 97 95 92
26 26 24 22 20 18 17 16 15 16 17 18 20 20 19 19 20 21 21 21 22 23 23 23 24 24 25 25 25 27 28 28 29 29 30 32 32 33 34 35 37 38 39 40 40 40 41 42 44 46 47 48 49 50 51 52 54 55 56 58 61 62 63 63 64 64 64 64 64 65 68 69 71 73 75 76 79 82 85 88 90 91 90 91 95 93 89 88
26 24 22 20 18 17 15 15 15 16 18 20 20 18 17 19 20 20 21 21 22 23 23 24 24 24 25 25 26 27 28 28 30 31 32 33 34 35 37 37 38 40 41 42 43 44 44 44 45 46 47 48 49 51 53 53 54 56 57 59 61 63 64 64 66 68 70 71 68 67 69 71 73 75 76 78 81 83 86 88 89 87 86 89 92 89 86 87
24 22 20 18 16 15 14 15 16 16 18 20 18 16 18 19 20 20 21 21 22 23 24 24 24 24 25 26 27 28 29 30 31 31 33 34 36 38 39 39 40 41 42 43 45 46 45 44 45 46 47 49 51 53 54 52 54 56 58 59 60 61 63 65 67 68 71 73 71 70 71 72 73 74 75 79 80 82 86 90 90 90 89 90 89 86 86 87
22 20 18 16 14 14 14 16 16 17 18 17 15 17 19 19 19 20 21 22 22 23 24 24 25 25 25 27 28 29 30 32 34 34 35 37 38 40 41 42 43 43 44 46 46 47 47 45 46 47 48 50 52 54 54 54 56 58 59 59 59 61 64 67 68 67 69 72 72 72 74 75 75 75 76 79 83 86 90 93 93 92 90 88 87 85 85 84
19 17 15 14 13 14 14 15 17 18 16 14 15 18 19 18 19 20 21 22 23 23 24 25 25 25 26 27 29 31 32 33 36 37 38 39 40 42 43 44 45 45 46 47 47 48 49 48 46 48 50 51 53 54 55 57 58 58 59 59 60 62 65 67 68 69 71 74 75 74 77 79 78 77 80 84 87 91 92 92 92 92 90 88 86 85 82 79
17 15 13 12 12 12 12 15 18 16 12 13 17 18 17 17 20 21 22 23 23 23 25 25 25 26 27 28 29 32 33 35 37 39 40 42 42 44 45 45 46 47 48 49 49 49 50 50 48 49 51 51 53 55 57 58 58 59 61 62 63 64 65 66 67 69 72 76 79 78 79 81 78 78 84 89 90 93 93 92 92 91 89 87 85 83 80 75
15 13 12 11 11 11 14 17 15 11 12 17 18 16 16 18 20 21 22 22 23 24 25 26 27 28 29 30 31 34 35 37 40 41 42 44 44 45 46 47 48 49 49 50 50 49 50 51 51 50 51 52 54 56 58 58 58 60 62 63 64 65 66 66 65 67 71 76 81 83 83 82 78 79 87 90 91 93 95 94 92 90 87 85 82 80 75 69
13 12 11 10 10 13 15 14 10 10 16 18 15 14 17 19 20 21 22 22 23 25 26 28 29 29 31 32 34 36 38 40 42 43 44 45 45 46 47 48 49 50 50 51 51 51 51 53 53 53 52 53 55 57 57 57 58 60 62 63 64 64 65 67 65 66 69 74 80 85 87 84 79 82 88 89 90 93 93 93 91 88 85 82 80 76 69 61
12 12 11 10 13 13 11 9 10 15 17 15 13 15 17 19 20 21 22 22 24 26 28 29 30 31 33 35 36 39 40 42 43 44 45 45 46 47 48 49 49 50 51 52 53 53 53 54 55 56 56 56 56 57 58 58 59 62 63 63 64 64 66 68 68 67 69 73 77 84 88 85 80 84 89 89 91 92 90 90 89 85 82 79 77 71 61 53
12 13 12 12 13 9 8 11 15 16 14 13 14 16 17 19 20 21 22 23 25 27 29 30 32 33 35 37 39 40 41 42 44 44 45 46 47 48 49 50 51 52 53 54 54 56 56 57 58 59 59 58 58 59 61 62 63 64 65 64 64 65 67 69 70 72 74 75 77 82 86 84 82 85 89 90 91 90 88 88 87 83 80 77 73 63 53 47
14 13 12 12 9 8 12 15 15 13 13 14 15 16 18 20 21 22 22 24 26 28 30 31 33 34 37 38 40 41 42 43 44 45 46 47 48 50 51 52 53 54 55 55 56 57 58 59 60 61 60 59 58 60 61 62 62 63 64 65 66 66 67 68 70 74 77 78 79 83 86 85 84 87 89 90 90 89 88 86 84 80 77 74 68 56 47 43
14 13 12 11 10 12 16 15 13 14 14 15 15 17 19 20 21 22 23 25 28 30 31 33 34 36 38 39 40 42 43 44 44 45 47 48 50 51 52 53 54 56 56 57 58 58 59 61 61 63 64 63 62 62 63 63 61 60 62 65 67 67 68 69 70 73 77 78 80 83 87 89 88 88 90 91 90 88 86 84 81 78 75 72 63 51 43 41
14 13 12 12 12 15 16 14 14 15 15 15 16 18 19 21 22 23 24 26 29 31 32 34 35 37 38 39 40 41 43 44 45 46 48 50 51 53 54 54 56 57 58 59 59 60 61 62 62 62 65 67 66 65 65 65 63 62 63 64 66 68 69 71 73 74 77 80 80 82 87 91 90 89 92 93 90 87 85 82 78 75 73 69 59 46 40 39
14 13 12 12 13 14 14 14 15 15 15 16 17 19 21 22 23 24 26 27 29 32 34 35 36 37 38 40 40 41 43 45 46 48 49 51 53 54 55 56 57 58 59 60 60 61 62 63 63 62 62 64 64 63 64 65 65 66 65 64 66 69 72 74 74 75 78 82 82 82 86 92 92 91 93 94 91 87 85 82 78 74 72 67 56 44 38 38
13 12 12 12 12 12 13 15 16 16 16 17 18 20 22 23 24 25 26 28 30 33 34 35 36 38 39 41 41 43 44 46 47 49 51 52 54 55 56 57 58 59 60 61 61 62 63 63 64 62 60 62 63 61 63 67 67 66 65 65 67 71 73 74 74 75 78 82 85 84 86 90 93 93 93 92 90 87 84 81 78 74 71 66 55 42 37 37
12 11 11 12 12 13 14 15 16 16 17 18 20 22 23 24 26 26 27 29 31 33 34 35 37 39 40 42 42 44 46 47 49 50 52 53 54 56 57 58 59 60 61 62 63 64 65 64 65 64 61 61 62 62 64 67 66 65 65 67 69 71 73 74 75 77 78 81 85 86 86 89 92 94 93 91 88 86 83 79 76 72 69 64 53 41 37 38
11 11 11 11 13 14 14 16 17 17 18 19 21 23 24 26 26 27 28 29 31 33 34 36 38 40 41 42 43 45 47 48 50 51 53 54 55 57 58 59 60 61 63 64 64 65 66 66 66 66 64 62 64 64 65 67 66 64 66 69 70 71 73 74 75 76 78 80 83 86 87 89 91 93 92 90 87 83 81 77 73 69 66 63 54 42 38 40
11 12 12 12 13 15 16 17 17 18 19 20 22 24 25 27 27 27 28 29 31 33 35 36 39 40 42 43 44 46 48 49 51 53 54 55 57 58 59 60 61 63 64 65 66 66 67 66 67 68 67 65 66 66 65 67 67 66 69 70 70 71 73 75 75 76 80 83 84 86 89 91 92 92 90 88 85 82 79 76 73 68 65 63 55 42 37 41
11 11 13 13 14 15 17 18 18 19 20 22 23 25 26 27 27 27 28 30 32 34 35 37 39 41 42 44 45 46 48 50 52 54 55 57 58 59 60 61 63 65 66 67 67 67 68 68 69 70 70 68 68 68 68 68 68 69 71 71 71 73 75 77 77 77 81 86 87 89 92 93 93 92 90 87 84 82 79 76 73 70 66 64 58 44 37 40
11 12 13 14 15 16 17 18 19 20 21 23 24 25 26 27 27 27 28 30 32 35 37 38 40 42 43 44 46 47 49 51 53 55 56 58 59 61 62 63 65 67 68 68 69 69 70 70 71 72 72 70 70 70 70 71 71 71 71 72 74 75 76 78 79 78 80 85 88 91 93 94 94 92 90 88 85 82 79 75 73 71 68 66 61 49 41 42
Wind_Direction
207 211 214 216 216 217 220 225 232 241 251 263 277 284 284 283 281 282 287 290 292 294 297 299 300 299 298 301 304 307 309 312 315 315 315 316 316 315 314 312 311 311 310 310 310 310 311 311 313 314 314 316 316 315 314 314 312 310 308 307 307 307 306 305 305 306 305 304 305 303 305 306 303 300 298 298 298 297 296 295 294 293 292 291 290 289 288 286
203 208 212 215 216 218 222 228 234 243 253 263 272 277 278 276 277 280 285 291 295 297 299 298 296 297 300 303 306 308 310 312 314 314 314 315 315 314 313 313 314 315 316 317 319 318 318 318 319 320 320 321 321 320 318 317 315 313 311 310 311 309 309 310 311 311 308 307 305 304 305 304 301 300 300 299 299 297 296 295 294 293 292 291 290 289 287 286
199 204 208 211 214 217 220 224 229 237 247 257 265 268 268 268 272 278 287 293 296 296 295 294 294 298 302 306 308 310 311 312 312 314 316 316 317 318 318 320 321 323 325 326 327 326 326 326 326 325 325 325 325 323 322 321 318 316 314 313 313 312 313 314 312 310 308 306 305 304 305 303 302 302 301 301 300 299 298 298 296 295 294 293 292 291 290 288
193 197 200 202 203 204 205 205 211 222 234 246 252 257 260 266 273 281 291 294 294 292 291 294 297 302 308 310 311 311 311 312 314 316 319 321 322 325 328 331 332 333 335 335 333 332 331 331 330 329 328 327 326 324 323 322 320 318 316 315 314 312 313 312 310 309 308 308 307 306 307 306 305 304 304 303 302 301 299 299 298 297 296 295 294 293 292 291
183 184 184 182 178 177 176 178 186 199 213 223 234 251 259 263 274 284 298 300 300 300 298 301 306 311 314 313 313 313 314 317 320 322 325 330 334 339 343 344 343 342 340 339 337 335 334 333 332 329 328 326 324 322 321 321 319 318 316 314 313 313 312 312 311 311 310 309 308 308 309 308 307 306 305 305 303 301 300 299 297 296 296 295 294 293 292 291
166 165 161 157 156 157 158 163 173 187 196 200 214 266 263 244 251 284 306 312 311 310 311 314 316 317 315 314 315 315 318 323 329 334 340 346 351 354 354 352 348 345 344 342 339 335 334 332 329 327 325 323 321 320 320 320 318 317 315 314 314 313 312 312 312 311 311 309 308 309 310 309 307 306 306 304 302 301 299 298 297 296 296 295 294 293 292 292
154 152 148 146 147 149 153 160 169 177 181 184 194 348 234 202 226 300 313 315 314 316 318 319 318 316 316 317 319 321 328 337 345 353 359 1 2 1 358 354 350 347 344 340 335 333 332 329 327 325 323 322 321 320 320 319 316 315 314 313 313 312 311 311 310 310 309 309 308 308 307 306 305 304 303 302 301 300 299 299 298 297 296 295 294 293 293 292
150 146 144 145 147 149 152 156 159 164 164 161 143 89 104 143 325 325 319 318 320 322 321 319 319 320 323 325 330 339 348 357 5 8 8 6 4 360 355 351 346 343 339 335 333 332 330 328 326 325 324 324 323 321 321 318 315 314 312 311 310 310 309 309 309 308 307 305 304 303 303 302 302 302 301 300 300 300 300 299 298 298 297 296 295 294 293 293
148 146 146 146 146 146 147 147 148 149 146 134 116 98 83 42 351 328 322 324 326 326 325 326 328 331 336 342 354 4 9 14 16 13 10 6 1 356 351 346 342 339 338 335 334 332 330 329 328 328 325 325 323 319 319 316 313 312 311 311 310 309 308 307 306 304 302 300 299 301 302 303 303 303 302 300 300 300 300 300 299 299 298 297 296 295 294 294
148 146 145 144 142 141 141 142 141 136 130 120 107 92 61 1 335 328 330 333 334 334 336 338 341 348 357 11 20 20 19 20 16 10 7 2 358 353 348 343 340 339 338 336 334 332 331 330 329 327 324 322 320 318 317 314 312 311 311 311 310 308 307 304 303 301 301 300 301 303 305 305 304 303 301 301 300 300 300 299 299 299 298 297 297 296 296 295
146 144 142 140 138 139 140 138 134 127 117 103 87 71 42 359 347 347 350 349 348 349 354 1 9 16 25 29 25 19 17 17 12 7 2 357 353 350 346 343 341 340 338 335 332 331 330 328 327 326 323 321 320 317 316 314 312 312 312 311 309 307 305 303 302 301 302 302 302 303 305 305 304 302 301 301 300 300 300 300 299 299 299 298 298 297 297 296
144 143 140 138 137 137 136 131 122 107 91 75 61 47 30 14 7 7 9 6 8 17 25 33 34 32 32 29 20 15 15 12 6 1 356 353 352 349 346 346 344 339 335 335 332 331 331 328 327 326 323 320 318 316 315 313 312 311 311 309 308 305 303 303 303 303 303 302 301 302 304 305 305 304 303 302 302 302 302 302 302 302 301 300 300 299 299 298
142 140 138 138 137 135 130 121 105 86 72 60 52 42 30 23 23 26 29 33 41 45 46 43 38 34 32 24 15 14 11 7 2 359 358 356 355 352 348 344 342 338 334 334 333 330 329 326 324 322 320 318 316 315 314 312 311 310 310 309 307 305 305 306 307 306 307 305 304 305 306 306 308 307 306 306 306 306 306 306 306 305 305 304 303 302 301 300
141 139 139 139 136 132 122 107 91 78 69 62 57 49 43 46 50 55 58 59 57 52 46 42 37 34 29 21 16 13 10 10 8 7 6 360 353 351 347 340 337 337 333 332 332 328 326 325 323 321 320 318 317 316 315 313 313 313 311 311 311 311 311 312 311 309 308 307 306 308 308 309 311 311 310 309 309 308 308 308 308 307 307 307 305 304 302 301
142 142 141 138 132 122 106 95 89 82 77 72 69 65 67 71 75 73 68 63 56 49 44 40 34 28 26 22 18 18 19 17 14 11 5 358 350 345 343 340 336 335 334 331 329 327 326 325 323 322 321 320 320 319 317 316 315 315 315 315 315 314 312 311 310 309 308 308 307 308 310 310 311 312 310 309 309 310 310 310 309 309 309 308 306 305 303 302
144 143 138 130 118 108 102 99 96 90 85 83 82 83 84 85 81 74 67 60 53 49 43 37 30 26 28 29 25 25 22 15 10 5 359 354 350 341 337 337 334 333 332 329 328 328 326 324 323 323 323 323 322 320 319 320 320 320 319 316 314 312 310 310 311 312 311 310 308 309 310 311 311 311 310 310 311 311 311 311 310 310 309 308 306 305 304 303
141 136 126 118 111 109 109 104 98 94 92 93 94 92 90 86 78 71 64 58 54 50 43 38 37 38 39 36 27 24 19 11 4 357 352 349 345 340 336 334 333 333 331 328 328 327 325 325 325 326 325 324 324 324 325 324 322 319 316 313 311 311 312 313 315 314 311 310 310 310 310 310 311 312 312 313 312 312 312 310 309 308 308 307 306 306 305 304
134 127 120 117 115 112 107 103 101 100 99 98 96 92 89 82 73 68 62 56 55 54 50 47 48 45 39 32 23 17 12 6 1 355 350 344 340 339 337 334 333 332 330 329 328 328 327 327 327 326 326 327 329 329 326 322 319 317 316 315 314 315 316 316 315 313 312 312 311 309 310 311 312 313 314 314 313 312 311 310 309 309 308 307 307 307 307 306
129 125 121 116 112 109 107 106 104 102 100 96 93 90 84 75 70 68 62 59 63 64 58 51 46 38 29 23 15 9 2 357 355 352 345 339 337 337 336 335 333 332 331 331 331 331 330 328 328 330 330 331 330 327 324 322 322 321 320 319 318 319 319 316 314 314 313 313 312 311 312 313 313 313 313 313 312 311 311 310 310 309 309 308 309 309 308 308
127 120 114 111 110 110 108 106 102 98 94 89 86 83 77 73 71 70 68 70 73 68 58 46 37 29 21 14 7 2 358 351 347 343 339 337 336 337 338 337 335 334 334 334 333 332 331 332 333 334 333 331 329 328 328 327 326 324 322 321 319 319 319 317 315 314 314 313 314 313 313 315 314 312 313 313 311 311 311 311 311 311 311 311 311 310 309 308
118 114 112 112 111 109 106 103 99 94 89 84 80 77 75 76 78 77 77 76 71 61 49 37 26 18 12 6 360 355 351 347 343 341 339 338 338 339 339 337 335 335 335 335 334 333 333 334 334 333 332 331 330 330 329 328 327 325 322 321 319 318 318 318 317 316 315 314 314 314 314 316 314 311 313 314 313 313 313 314 315 315 315 314 313 312 311 310
115 114 113 112 109 106 103 99 95 91 87 84 80 80 82 86 86 82 79 73 64 51 39 28 18 11 3 359 356 351 349 349 346 343 341 341 341 340 338 338 337 337 335 334 333 333 334 333 332 331 330 329 329 329 328 327 324 322 320 319 319 317 317 318 317 316 316 315 316 316 316 318 315 312 314 316 317 318 318 318 319 318 317 315 315 314 314 313
115 113 111 108 105 101 98 94 92 91 89 88 88 91 93 90 85 78 71 63 53 43 31 20 13 7 360 355 354 352 351 350 345 343 343 343 341 340 340 339 338 336 335 334 334 334 334 333 332 330 329 328 327 327 325 323 321 320 320 319 319 318 318 319 319 318 318 318 317 316 317 319 317 316 319 321 323 323 321 321 320 319 318 317 316 316 314 313
112 111 107 104 101 98 96 94 94 94 94 95 96 96 92 84 75 66 58 50 41 32 23 15 8 4 0 355 353 353 351 348 345 345 345 343 342 342 341 339 338 337 336 336 335 335 334 333 332 329 328 327 325 324 323 323 322 321 321 321 322 322 321 321 320 320 321 319 317 316 318 321 320 322 325 326 325 323 321 321 320 319 318 317 316 315 314 312
109 107 104 102 100 98 97 96 95 98 99 99 96 90 82 72 64 55 46 37 28 19 14 11 6 2 0 356 354 353 350 348 348 347 346 345 345 344 341 340 339 338 337 337 336 336 335 333 331 329 328 328 327 326 326 326 325 323 324 324 324 323 322 321 320 320 321 321 321 321 322 323 325 327 327 326 323 321 320 321 320 319 318 316 315 314 312 311
105 104 104 103 103 101 99 98 98 100 98 94 87 78 71 63 55 47 39 29 20 14 10 6 3 2 0 357 355 353 351 351 351 350 349 348 347 345 343 342 340 339 339 338 338 337 335 332 331 330 330 330 330 328 328 327 327 326 326 326 325 323 322 321 321 322 323 326 327 327 327 327 328 328 326 324 321 320 322 322 320 318 317 315 315 313 311 310
104 105 106 104 104 102 101 101 100 98 92 85 77 69 63 55 47 39 30 21 15 13 10 5 3 3 0 357 356 354 354 354 353 352 351 349 349 347 345 344 342 341 340 340 340 338 335 333 333 332 332 331 330 328 327 328 329 329 328 327 325 323 322 323 325 325 326 329 329 330 329 327 328 329 325 321 321 322 324 322 319 318 317 315 314 312 311 311
107 106 105 104 103 103 103 102 98 92 85 78 71 64 55 46 38 29 20 16 13 10 8 6 4 2 359 357 356 355 356 357 355 354 353 350 350 349 347 346 344 343 344 343 341 338 335 335 334 334 333 331 330 329 329 331 331 330 329 327 326 325 327 328 327 327 328 330 330 331 329 324 326 328 324 322 325 326 324 322 320 319 317 315 314 313 313 313
107 105 103 103 104 104 103 99 94 87 81 73 65 55 45 36 28 22 18 15 11 8 7 6 3 0 359 358 357 357 358 357 356 356 356 354 352 351 349 348 348 348 346 343 340 338 337 337 336 336 334 332 332 332 332 332 332 331 330 331 331 331 330 329 329 329 329 331 332 331 328 324 324 327 325 325 327 327 325 323 321 319 317 316 315 314 314 313
104 103 104 104 105 104 99 95 89 83 75 65 54 43 34 27 20 17 17 14 10 8 7 4 1 359 358 358 358 359 358 357 358 357 357 357 355 354 353 352 351 350 346 342 342 342 339 338 338 337 335 335 336 335 334 333 333 333 333 333 334 333 332 331 330 330 330 332 333 330 327 325 325 328 327 326 326 325 323 321 319 317 315 315 315 314 314 313
106 107 107 106 104 101 97 91 85 76 65 52 39 30 25 22 17 15 17 13 8 8 7 3 0 358 358 359 359 360 359 359 359 358 358 357 356 356 354 353 351 350 348 347 346 345 342 340 340 340 339 339 339 339 337 335 335 335 334 333 333 333 333 332 330 330 330 332 332 329 327 327 327 328 327 326 325 322 320 318 317 316 316 316 315 315 315 314
110 110 109 106 102 99 94 86 78 66 52 40 30 23 20 19 18 16 15 11 8 8 5 1 360 359 359 0 0 0 1 2 2 1 1 0 359 358 357 356 355 353 353 352 350 348 346 345 344 344 344 342 342 341 339 337 336 336 335 333 332 333 335 334 331 330 330 331 333 331 330 330 328 328 328 327 324 322 321 320 319 318 318 317 316 316 315 314
112 111 108 104 100 95 87 77 67 52 40 32 24 18 18 20 19 16 13 11 8 6 4 3 2 1 2 3 2 2 3 3 3 4 4 4 3 1 360 359 358 356 355 354 353 351 349 348 347 346 345 343 342 341 340 339 338 337 335 334 334 334 334 334 331 330 330 332 336 334 332 330 329 329 330 328 325 324 324 322 321 321 318 316 317 317 315 312
113 110 106 102 96 87 77 65 51 39 32 25 18 16 19 21 19 15 12 10 7 6 6 6 5 4 4 3 4 4 4 5 5 5 5 4 2 1 1 360 358 356 355 354 353 352 350 349 348 346 345 343 341 340 341 341 338 336 336 336 335 333 332 332 331 331 331 333 335 334 332 331 330 331 330 327 326 326 324 323 323 321 317 315 317 317 314 312
112 108 105 99 90 80 67 52 39 29 26 19 14 18 22 19 17 14 12 9 8 8 9 8 7 6 5 5 6 6 5 6 6 6 4 3 2 1 0 359 357 356 355 353 352 352 351 349 347 346 344 342 341 341 341 340 337 337 338 337 334 331 330 331 332 333 330 330 333 333 331 330 330 331 330 327 328 326 323 323 323 322 319 318 318 317 315 315
111 108 103 94 84 71 56 43 30 24 22 15 13 23 22 18 16 14 12 11 11 11 10 9 9 8 7 6 6 6 6 6 6 6 4 3 1 360 359 358 356 355 354 352 351 350 350 349 347 345 343 342 342 341 340 339 339 339 338 336 334 332 331 331 332 332 329 329 331 331 331 331 332 333 331 329 329 326 324 325 324 323 321 320 319 319 318 318
109 103 95 84 73 58 46 38 25 19 17 14 20 25 21 17 16 13 13 13 11 11 11 10 10 9 9 8 7 7 7 6 5 5 4 2 1 359 358 357 356 355 354 352 350 349 349 349 347 344 343 342 341 340 340 340 340 338 337 336 335 333 333 332 331 331 330 329 330 332 332 333 336 335 332 330 329 327 327 327 324 323 322 322 322 322 321 319
102 94 84 72 60 45 38 33 19 9 11 21 25 24 19 16 15 12 13 13 11 11 11 10 11 11 10 9 8 7 7 6 6 5 3 2 1 359 358 357 355 355 353 351 350 348 348 349 348 345 343 342 340 339 340 341 340 337 336 336 336 334 333 333 331 331 331 329 330 332 333 335 337 335 333 332 331 329 328 327 325 325 325 325 325 324 323 320
96 87 76 62 49 40 38 29 9 0 22 27 25 21 17 15 13 12 12 11 11 12 12 12 12 11 11 10 9 9 7 7 6 5 3 2 1 359 358 357 356 355 353 352 350 348 347 348 349 347 344 342 341 340 340 339 339 338 336 335 336 334 332 332 333 333 331 330 331 331 334 338 339 336 334 334 331 329 329 328 327 327 327 327 327 326 324 321
93 78 63 49 40 39 35 22 5 20 31 25 20 19 16 13 11 11 11 11 12 13 12 12 12 11 11 11 10 9 8 7 6 4 3 2 0 359 358 357 356 355 354 352 350 349 347 347 349 348 346 343 342 342 340 338 338 338 337 336 336 334 331 332 334 334 332 332 333 331 333 340 340 336 335 333 330 330 330 328 328 329 328 328 328 327 324 322
83 64 49 41 37 34 29 23 26 30 26 20 17 16 13 11 10 10 11 12 12 13 13 12 12 11 11 11 10 9 8 7 5 4 3 1 360 359 358 357 357 355 354 352 351 349 348 348 348 348 347 346 344 343 340 339 338 338 338 337 335 333 333 332 333 334 333 334 334 331 333 340 341 336 334 332 330 331 331 329 330 330 329 329 329 327 324 323
67 54 46 42 38 33 36 38 33 26 21 19 16 12 11 10 10 11 12 13 14 14 12 11 11 11 11 11 10 9 8 6 5 3 2 1 0 359 359 358 357 356 354 353 351 350 349 349 349 349 349 348 346 344 343 342 340 338 338 336 335 335 335 333 333 335 335 335 335 332 333 339 339 334 332 332 331 332 333 332 332 331 330 331 331 327 323 322
59 52 50 47 46 50 47 37 27 22 22 19 12 11 12 10 11 13 13 14 14 13 12 11 11 11 11 10 9 8 6 5 4 3 2 1 0 359 359 358 357 356 355 353 352 350 349 349 349 349 349 348 346 345 344 343 342 338 336 335 336 336 335 333 334 336 335 335 335 334 334 337 338 334 332 333 333 334 335 333 333 331 330 332 332 327 322 323
62 61 62 60 55 52 44 32 25 24 21 15 11 13 13 11 12 14 14 15 14 12 12 11 11 11 10 9 8 7 5 4 4 2 1 1 0 359 359 358 357 356 355 354 353 351 350 349 348 347 347 347 347 346 345 345 344 340 337 336 336 335 333 333 336 336 334 334 335 335 334 337 338 335 333 334 336 336 336 335 334 332 331 334 334 327 322 324
69 68 68 62 52 47 40 30 26 24 19 14 14 14 14 13 14 15 15 15 13 12 12 12 11 11 10 8 7 6 4 3 3 2 2 1 0 359 359 358 357 356 355 354 353 352 351 350 348 347 346 346 347 346 344 344 344 343 340 337 335 334 334 336 337 336 334 333 336 338 335 337 339 336 334 336 338 338 337 336 335 332 331 335 335 327 323 326
72 66 60 53 45 42 36 28 25 22 18 16 15 15 15 15 15 16 15 14 13 12 12 11 11 10 9 8 6 5 4 3 2 2 2 1 0 359 358 357 357 355 355 354 353 352 351 351 350 348 346 345 345 345 342 341 342 343 342 339 336 335 336 337 337 337 335 334 337 340 337 337 339 337 335 337 339 339 338 337 335 333 333 336 336 328 324 325
70 61 52 43 37 34 28 24 22 20 18 17 16 16 15 15 15 16 15 14 13 12 11 11 10 9 8 7 6 5 4 3 3 2 1 0 359 358 357 357 356 355 355 354 353 352 351 351 350 350 347 345 345 344 342 341 342 342 341 339 337 337 338 337 337 337 336 335 337 340 339 338 339 338 337 338 339 339 339 337 336 334 334 337 335 327 321 323
63 55 46 37 31 28 24 21 19 18 18 17 16 16 15 14 15 15 15 14 12 11 10 9 9 8 7 6 5 5 4 3 3 2 1 360 358 358 357 356 355 355 354 354 353 352 351 351 351 351 349 346 345 345 343 342 343 342 340 339 339 339 338 337 338 338 337 336 338 339 340 340 340 339 339 339 339 340 339 337 336 334 333 336 334 325 320 323
56 49 42 33 28 26 21 19 18 17 18 17 16 15 14 14 14 14 14 13 11 10 9 8 8 7 7 6 5 5 4 3 2 1 360 359 358 357 357 356 355 354 354 353 353 352 351 351 350 350 350 347 346 346 344 342 343 342 340 341 341 340 338 337 339 339 337 337 339 339 340 341 341 341 341 340 339 339 338 336 335 333 333 336 335 326 320 323
50 45 39 32 27 23 19 18 17 17 18 18 16 15 13 13 13 13 13 11 10 9 8 7 7 6 6 6 5 4 4 3 2 1 359 359 358 357 356 356 355 354 353 353 352 352 351 351 350 349 350 348 347 347 345 343 343 342 342 343 342 340 339 338 340 340 338 338 340 340 340 342 342 342 342 341 339 338 338 337 336 335 335 337 337 330 321 323
42 40 36 30 25 21 17 17 16 18 19 18 16 14 13 13 12 12 12 11 9 8 7 7 7 6 5 5 5 5 4 3 2 1 359 358 358 357 356 355 354 353 353 352 352 352 351 350 349 349 350 349 347 347 346 344 344 344 344 344 342 341 341 340 342 343 340 339 341 341 341 342 343 344 344 341 339 339 340 339 338 337 337 338 339 333 324 325
35 35 32 27 23 18 16 15 16 18 19 18 16 14 12 12 11 11 11 10 9 8 7 7 6 6 5 5 5 4 3 3 2 0 359 358 357 356 356 355 354 353 352 352 352 351 350 350 349 348 349 349 348 348 346 345 345 345 345 344 343 343 342 342 344 345 341 340 341 341 342 343 343 344 344 342 341 341 342 341 339 338 337 339 340 335 328 328
Height
5774 5776 5777 5779 5780 5782 5783 5785 5786 5788 5789 5790 5791 5791 5791 5791 5791 5792 5792 5792 5792 5792 5791 5791 5791 5791 5791 5790 5790 5789 5789 5788 5788 5787 5786 5785 5784 5783 5782 5781 5780 5779 5778 5777 5776 5775 5774 5773 5772 5771 5770 5769 5768 5767 5766 5765 5764 5763 5762 5760 5760 5758 5757 5756 5755 5754 5752 5750 5749 5747 5747 5744 5741 5739 5736 5737 5737 5734 5732 5730 5729 5728 5726 5724 5722 5721 5720 5718
5774 5776 5777 5779 5780 5782 5783 5785 5786 5788 5789 5790 5790 5791 5791 5791 5791 5791 5791 5791 5791 5791 5791 5791 5791 5791 5790 5790 5790 5789 5789 5788 5788 5787 5786 5784 5783 5782 5781 5780 5779 5778 5777 5776 5775 5774 5773 5772 5771 5770 5769 5768 5767 5766 5765 5764 5763 5761 5760 5759 5758 5756 5755 5753 5752 5751 5749 5747 5746 5745 5745 5741 5738 5736 5733 5733 5732 5730 5729 5727 5725 5723 5722 5720 5718 5717 5715 5713
5774 5775 5777 5778 5780 5782 5783 5785 5786 5788 5789 5789 5790 5790 5790 5790 5791 5791 5791 5791 5791 5791 5791 5791 5791 5791 5790 5790 5789 5789 5789 5788 5787 5786 5785 5784 5782 5781 5780 5779 5778 5777 5776 5775 5774 5773 5772 5771 5770 5768 5767 5766 5765 5764 5763 5762 5761 5759 5757 5756 5755 5754 5753 5751 5749 5748 5746 5745 5743 5742 5742 5739 5736 5734 5731 5730 5729 5727 5725 5723 5721 5719 5717 5715 5714 5712 5710 5709
5773 5775 5777 5779 5780 5782 5784 5785 5786 5788 5788 5789 5789 5789 5790 5790 5790 5791 5791 5791 5791 5791 5791 5791 5791 5790 5790 5790 5789 5789 5788 5788 5787 5785 5784 5783 5782 5780 5779 5778 5778 5776 5776 5775 5773 5772 5771 5770 5768 5767 5766 5765 5764 5762 5761 5760 5758 5757 5755 5754 5753 5751 5750 5749 5747 5746 5744 5742 5740 5739 5739 5737 5734 5731 5728 5727 5726 5724 5722 5720 5718 5716 5714 5712 5710 5708 5706 5705
5774 5775 5777 5779 5781 5782 5784 5785 5786 5787 5788 5788 5789 5789 5789 5790 5790 5791 5791 5791 5791 5791 5791 5791 5791 5790 5790 5790 5789 5789 5788 5787 5786 5785 5783 5782 5781 5780 5779 5778 5777 5776 5775 5774 5773 5771 5770 5768 5767 5766 5765 5763 5762 5761 5759 5758 5756 5755 5753 5752 5750 5749 5748 5746 5744 5743 5741 5740 5738 5736 5735 5734 5731 5729 5726 5724 5722 5720 5719 5717 5715 5712 5710 5708 5706 5704 5702 5700
5774 5776 5778 5779 5781 5783 5784 5785 5786 5787 5788 5788 5789 5789 5789 5790 5790 5791 5791 5791 5791 5791 5791 5791 5791 5790 5790 5790 5789 5788 5787 5786 5785 5784 5783 5782 5781 5780 5779 5778 5776 5775 5774 5773 5771 5770 5769 5767 5766 5765 5763 5762 5761 5759 5757 5756 5754 5753 5751 5749 5748 5747 5745 5744 5742 5741 5739 5737 5736 5734 5732 5730 5728 5726 5723 5721 5718 5716 5715 5713 5711 5709 5707 5704 5702 5700 5698 5696
5775 5777 5778 5780 5781 5782 5784 5785 5786 5787 5788 5789 5789 5789 5789 5790 5790 5791 5791 5791 5791 5791 5791 5791 5791 5790 5790 5789 5789 5788 5787 5786 5785 5783 5782 5781 5780 5779 5778 5777 5776 5774 5773 5772 5770 5769 5768 5766 5765 5763 5762 5760 5759 5757 5756 5754 5752 5751 5749 5747 5746 5745 5743 5742 5740 5738 5737 5734 5732 5731 5729 5727 5725 5722 5720 5717 5714 5712 5710 5708 5706 5704 5702 5700 5698 5696 5693 5691
5776 5777 5778 5780 5781 5783 5784 5785 5787 5788 5788 5789 5789 5789 5790 5790 5791 5791 5791 5792 5792 5792 5792 5791 5791 5791 5790 5789 5788 5787 5786 5785 5784 5783 5782 5781 5780 5779 5777 5776 5775 5774 5772 5771 5770 5768 5766 5765 5764 5762 5760 5759 5757 5756 5754 5752 5751 5749 5747 5746 5744 5742 5741 5739 5737 5735 5733 5731 5729 5727 5725 5724 5721 5719 5717 5713 5710 5708 5705 5703 5701 5699 5697 5695 5693 5690 5688 5686
5776 5777 5779 5780 5782 5783 5785 5786 5787 5788 5789 5789 5789 5790 5790 5791 5791 5791 5792 5792 5792 5792 5792 5791 5791 5790 5790 5789 5788 5787 5786 5785 5784 5783 5782 5781 5780 5778 5777 5776 5775 5773 5772 5770 5769 5767 5766 5764 5763 5761 5760 5758 5756 5754 5753 5751 5749 5747 5745 5743 5741 5739 5738 5736 5734 5732 5729 5727 5725 5724 5722 5719 5716 5713 5711 5708 5705 5703 5700 5698 5695 5693 5691 5689 5687 5684 5682 5680
5776 5778 5779 5780 5782 5784 5785 5787 5788 5789 5789 5789 5790 5790 5791 5791 5792 5792 5792 5792 5793 5792 5792 5791 5791 5790 5790 5789 5788 5787 5786 5785 5784 5783 5782 5781 5779 5778 5777 5776 5774 5772 5771 5770 5768 5767 5765 5764 5762 5760 5759 5757 5755 5753 5751 5749 5747 5745 5743 5740 5738 5736 5734 5732 5730 5728 5725 5722 5720 5718 5716 5714 5711 5708 5705 5702 5700 5697 5695 5692 5690 5688 5685 5683 5680 5678 5676 5673
5777 5778 5779 5781 5783 5784 5786 5787 5788 5789 5789 5790 5790 5791 5791 5792 5792 5792 5793 5793 5793 5792 5792 5791 5791 5790 5789 5788 5788 5787 5786 5785 5784 5783 5782 5781 5779 5778 5777 5775 5774 5772 5771 5770 5768 5767 5765 5763 5761 5759 5757 5755 5753 5751 5749 5747 5745 5742 5740 5738 5735 5733 5730 5727 5725 5723 5721 5718 5715 5713 5711 5709 5706 5703 5700 5697 5694 5692 5689 5687 5684 5681 5679 5676 5674 5672 5669 5667
5777 5779 5780 5782 5784 5785 5786 5788 5788 5789 5789 5790 5790 5791 5791 5792 5792 5793 5793 5793 5793 5792 5792 5791 5791 5790 5789 5788 5788 5787 5786 5785 5784 5783 5782 5780 5779 5778 5777 5775 5774 5773 5771 5769 5767 5766 5764 5762 5760 5757 5755 5753 5751 5749 5747 5745 5742 5740 5737 5735 5732 5729 5727 5724 5721 5718 5716 5713 5710 5708 5706 5705 5702 5698 5694 5692 5689 5686 5683 5681 5678 5675 5672 5669 5667 5665 5663 5659
5778 5780 5781 5783 5784 5786 5787 5788 5789 5789 5789 5790 5790 5791 5792 5792 5793 5793 5793 5793 5793 5793 5792 5791 5791 5790 5789 5789 5788 5787 5786 5785 5784 5783 5782 5780 5779 5778 5777 5775 5774 5772 5770 5768 5766 5764 5762 5760 5758 5756 5754 5752 5749 5747 5744 5742 5739 5737 5734 5732 5729 5726 5723 5721 5717 5714 5712 5709 5706 5704 5701 5700 5698 5694 5690 5687 5684 5681 5678 5675 5672 5669 5666 5663 5660 5658 5656 5653
5779 5780 5782 5784 5785 5786 5787 5788 5789 5789 5790 5790 5791 5792 5792 5793 5793 5793 5794 5793 5793 5793 5792 5792 5791 5790 5790 5789 5788 5787 5786 5785 5784 5783 5782 5781 5780 5778 5777 5775 5773 5771 5769 5767 5765 5763 5761 5759 5757 5754 5752 5750 5747 5744 5742 5739 5737 5734 5731 5728 5726 5723 5719 5717 5715 5711 5709 5706 5702 5700 5698 5696 5695 5691 5687 5683 5680 5677 5674 5671 5668 5664 5661 5658 5654 5651 5649 5647
5780 5781 5783 5784 5785 5787 5788 5788 5789 5789 5790 5791 5791 5792 5793 5793 5794 5794 5794 5794 5794 5793 5793 5792 5791 5791 5790 5790 5789 5788 5787 5786 5785 5784 5782 5781 5780 5778 5776 5774 5772 5770 5768 5766 5764 5762 5759 5757 5754 5752 5750 5747 5744 5742 5739 5737 5734 5732 5728 5725 5723 5720 5717 5715 5714 5711 5707 5704 5699 5696 5694 5692 5691 5688 5683 5679 5676 5672 5669 5666 5662 5658 5655 5651 5648 5645 5641 5639
5781 5782 5783 5785 5786 5787 5788 5789 5789 5790 5791 5791 5792 5793 5794 5794 5794 5795 5795 5795 5794 5794 5793 5793 5792 5792 5791 5790 5790 5789 5787 5786 5785 5784 5782 5781 5779 5777 5775 5773 5771 5769 5767 5765 5762 5760 5757 5755 5753 5750 5747 5745 5742 5739 5737 5734 5731 5728 5725 5723 5720 5719 5717 5714 5712 5708 5705 5702 5697 5692 5689 5688 5686 5684 5680 5675 5671 5667 5663 5660 5656 5652 5648 5645 5641 5638 5634 5631
5781 5783 5784 5785 5787 5787 5788 5789 5790 5791 5791 5792 5793 5794 5795 5795 5795 5795 5795 5795 5795 5794 5794 5794 5793 5792 5792 5791 5790 5789 5788 5786 5785 5783 5782 5780 5778 5776 5774 5772 5770 5767 5765 5763 5761 5758 5756 5753 5750 5748 5745 5742 5739 5736 5733 5730 5728 5726 5724 5721 5719 5716 5714 5711 5708 5705 5702 5698 5694 5689 5684 5682 5681 5679 5674 5670 5666 5661 5657 5653 5650 5646 5642 5638 5634 5630 5627 5623
5782 5784 5785 5786 5787 5788 5789 5790 5790 5791 5792 5793 5794 5795 5796 5796 5796 5796 5796 5796 5796 5795 5795 5795 5794 5793 5792 5792 5791 5789 5788 5786 5784 5783 5781 5779 5777 5775 5773 5771 5768 5766 5764 5762 5759 5757 5754 5751 5748 5746 5743 5740 5737 5734 5731 5729 5726 5724 5721 5719 5716 5713 5710 5707 5704 5701 5698 5695 5691 5686 5682 5678 5675 5674 5669 5664 5660 5656 5651 5647 5642 5639 5635 5631 5627 5623 5619 5615
5783 5784 5785 5787 5788 5789 5790 5790 5791 5792 5793 5794 5795 5796 5797 5797 5797 5797 5797 5797 5796 5796 5796 5796 5795 5794 5793 5792 5790 5789 5787 5785 5784 5782 5780 5778 5776 5774 5772 5770 5767 5765 5762 5760 5757 5754 5751 5748 5746 5743 5740 5737 5735 5733 5730 5727 5724 5720 5718 5714 5712 5709 5706 5703 5699 5696 5693 5691 5688 5682 5678 5674 5669 5667 5666 5660 5655 5650 5645 5641 5636 5631 5627 5623 5619 5615 5611 5606
5784 5785 5786 5787 5789 5790 5791 5792 5793 5794 5795 5796 5797 5797 5798 5798 5798 5798 5798 5798 5797 5797 5797 5796 5795 5794 5793 5791 5790 5788 5787 5785 5783 5782 5780 5778 5775 5773 5771 5768 5766 5763 5760 5758 5755 5752 5749 5746 5743 5740 5737 5735 5732 5730 5727 5723 5720 5717 5714 5711 5707 5704 5703 5699 5695 5692 5688 5686 5684 5678 5674 5671 5663 5659 5660 5655 5648 5644 5639 5634 5629 5624 5619 5614 5610 5606 5602 5597
5784 5786 5787 5788 5790 5791 5792 5793 5794 5795 5796 5797 5798 5798 5799 5799 5799 5799 5799 5799 5798 5798 5798 5797 5796 5795 5793 5792 5790 5788 5787 5785 5783 5781 5779 5777 5774 5771 5769 5766 5764 5761 5758 5756 5752 5749 5747 5743 5740 5738 5735 5732 5729 5726 5723 5720 5717 5713 5710 5707 5704 5700 5698 5696 5690 5686 5683 5679 5678 5674 5669 5667 5660 5652 5651 5648 5642 5636 5632 5626 5621 5615 5610 5604 5600 5595 5590 5586
5785 5787 5788 5790 5791 5792 5794 5795 5796 5797 5798 5799 5800 5800 5800 5801 5800 5800 5800 5800 5799 5799 5798 5797 5796 5795 5793 5792 5790 5788 5786 5784 5782 5780 5777 5775 5772 5770 5767 5765 5762 5759 5756 5753 5751 5747 5745 5742 5739 5736 5733 5730 5726 5723 5720 5716 5713 5710 5707 5703 5700 5696 5693 5693 5688 5682 5677 5672 5670 5668 5664 5661 5655 5646 5643 5640 5634 5627 5621 5616 5610 5605 5600 5594 5588 5583 5578 5573
5787 5789 5790 5792 5793 5794 5796 5797 5798 5798 5799 5800 5801 5802 5802 5802 5802 5801 5801 5800 5800 5799 5798 5797 5796 5794 5793 5791 5789 5787 5785 5783 5781 5779 5776 5774 5771 5769 5766 5763 5760 5757 5754 5751 5748 5745 5742 5739 5736 5733 5730 5727 5724 5721 5718 5714 5710 5706 5703 5699 5696 5691 5686 5684 5683 5679 5674 5667 5662 5659 5658 5656 5649 5640 5634 5630 5623 5617 5612 5606 5601 5596 5590 5584 5578 5572 5567 5563
5789 5791 5792 5794 5795 5796 5797 5798 5799 5800 5801 5802 5803 5803 5803 5803 5803 5802 5802 5801 5800 5800 5799 5798 5796 5794 5792 5791 5789 5787 5785 5783 5780 5778 5775 5773 5770 5767 5764 5761 5759 5756 5753 5749 5746 5743 5740 5737 5734 5731 5728 5725 5721 5719 5715 5712 5707 5703 5699 5694 5690 5687 5682 5677 5674 5672 5670 5665 5658 5651 5649 5650 5643 5629 5622 5620 5615 5610 5606 5600 5593 5588 5582 5576 5570 5563 5557 5552
5792 5793 5794 5796 5797 5798 5799 5800 5801 5802 5803 5804 5804 5804 5804 5804 5804 5803 5803 5802 5801 5800 5799 5797 5796 5794 5792 5790 5788 5786 5784 5782 5779 5777 5774 5772 5769 5766 5763 5760 5757 5754 5751 5748 5745 5741 5738 5734 5731 5728 5725 5722 5718 5715 5711 5708 5704 5699 5695 5691 5686 5682 5679 5675 5670 5666 5664 5661 5654 5644 5638 5639 5638 5624 5614 5613 5609 5604 5600 5594 5588 5581 5574 5568 5563 5555 5548 5542
5794 5795 5797 5798 5799 5800 5801 5802 5803 5804 5805 5805 5806 5806 5806 5805 5805 5804 5804 5803 5802 5801 5799 5797 5796 5794 5792 5790 5788 5786 5784 5781 5778 5776 5773 5770 5767 5765 5762 5758 5755 5752 5749 5746 5743 5739 5736 5732 5729 5725 5722 5718 5715 5711 5707 5704 5700 5696 5692 5688 5684 5679 5675 5671 5667 5661 5656 5652 5646 5637 5628 5626 5630 5624 5613 5608 5603 5597 5593 5586 5580 5574 5567 5559 5553 5546 5538 5531
5796 5798 5799 5800 5801 5802 5803 5804 5805 5806 5806 5807 5807 5807 5807 5806 5806 5805 5804 5804 5802 5800 5799 5797 5795 5794 5792 5790 5787 5785 5783 5780 5777 5774 5771 5769 5766 5763 5760 5757 5754 5751 5747 5744 5740 5737 5734 5730 5726 5723 5719 5715 5712 5708 5704 5701 5696 5693 5688 5684 5680 5676 5672 5666 5661 5655 5650 5646 5641 5634 5625 5619 5622 5621 5609 5602 5596 5589 5585 5579 5571 5564 5557 5550 5543 5535 5527 5521
5799 5800 5801 5802 5803 5804 5805 5806 5807 5808 5808 5808 5808 5808 5808 5807 5807 5806 5805 5804 5802 5800 5799 5797 5795 5793 5791 5789 5787 5784 5782 5779 5776 5773 5770 5767 5765 5762 5759 5756 5752 5749 5745 5741 5738 5734 5731 5727 5724 5720 5716 5712 5708 5704 5700 5696 5692 5688 5684 5681 5676 5671 5666 5661 5656 5651 5646 5642 5637 5632 5624 5615 5616 5617 5605 5594 5588 5580 5574 5569 5561 5553 5545 5538 5530 5523 5515 5509
5801 5802 5803 5804 5805 5806 5807 5808 5809 5809 5810 5810 5809 5809 5809 5808 5807 5806 5805 5803 5802 5800 5798 5796 5795 5793 5791 5788 5786 5783 5780 5778 5775 5773 5770 5767 5763 5760 5757 5754 5750 5747 5743 5739 5736 5732 5728 5725 5721 5717 5713 5710 5705 5700 5696 5691 5688 5684 5680 5676 5671 5665 5660 5656 5651 5647 5642 5638 5632 5627 5622 5610 5606 5610 5603 5591 5583 5575 5565 5557 5550 5543 5535 5526 5518 5510 5504 5496
5803 5804 5805 5806 5807 5808 5809 5810 5811 5811 5811 5811 5811 5810 5810 5808 5807 5806 5805 5803 5802 5800 5798 5796 5795 5792 5790 5787 5785 5782 5779 5776 5774 5771 5768 5765 5762 5758 5755 5751 5748 5745 5742 5738 5735 5731 5727 5723 5719 5715 5711 5707 5702 5697 5693 5688 5684 5679 5674 5670 5668 5663 5657 5651 5646 5642 5637 5635 5631 5624 5620 5609 5599 5598 5596 5589 5582 5573 5563 5555 5546 5537 5529 5520 5509 5500 5493 5483
5804 5806 5807 5808 5809 5810 5811 5812 5812 5813 5812 5812 5812 5811 5810 5809 5808 5806 5805 5803 5802 5800 5798 5796 5794 5792 5789 5787 5784 5782 5779 5776 5773 5769 5766 5763 5760 5756 5753 5749 5746 5743 5740 5737 5732 5729 5725 5721 5717 5713 5708 5703 5699 5694 5689 5684 5679 5674 5668 5663 5660 5659 5656 5649 5642 5638 5633 5632 5629 5622 5615 5608 5597 5589 5586 5581 5576 5570 5561 5552 5542 5531 5520 5511 5500 5489 5480 5470
5807 5808 5809 5811 5812 5813 5813 5814 5814 5814 5814 5813 5812 5811 5810 5809 5808 5806 5805 5804 5802 5800 5798 5796 5794 5792 5789 5787 5784 5781 5779 5776 5772 5769 5766 5763 5759 5756 5753 5749 5745 5741 5737 5733 5729 5726 5722 5717 5713 5708 5704 5699 5694 5690 5686 5681 5675 5669 5663 5657 5651 5648 5646 5641 5635 5631 5628 5627 5624 5615 5606 5600 5594 5588 5580 5572 5565 5559 5551 5540 5530 5520 5509 5498 5487 5477 5469 5460
5809 5811 5812 5813 5814 5815 5815 5815 5815 5815 5815 5814 5813 5812 5811 5810 5808 5807 5805 5804 5802 5800 5798 5796 5794 5791 5789 5786 5784 5781 5778 5774 5771 5768 5765 5761 5758 5755 5751 5747 5742 5738 5734 5730 5726 5723 5718 5714 5710 5704 5700 5695 5690 5685 5681 5675 5669 5663 5657 5650 5643 5636 5632 5629 5624 5620 5618 5617 5615 5608 5598 5590 5584 5581 5574 5564 5555 5546 5538 5528 5517 5507 5495 5483 5475 5467 5459 5450
5812 5813 5814 5815 5816 5816 5817 5817 5816 5816 5815 5814 5813 5813 5811 5810 5808 5807 5805 5804 5802 5800 5798 5796 5793 5791 5788 5786 5783 5780 5777 5773 5770 5766 5763 5759 5756 5752 5748 5744 5740 5736 5731 5727 5723 5719 5714 5710 5706 5701 5696 5691 5686 5681 5676 5670 5664 5658 5652 5645 5637 5630 5625 5622 5617 5609 5603 5602 5602 5599 5592 5584 5575 5571 5565 5556 5547 5537 5527 5517 5508 5498 5486 5474 5466 5458 5448 5437
5814 5815 5816 5817 5818 5818 5818 5818 5817 5817 5816 5814 5814 5813 5811 5810 5809 5807 5806 5804 5802 5800 5798 5795 5793 5790 5788 5785 5782 5778 5775 5772 5768 5765 5761 5758 5754 5751 5747 5743 5738 5734 5730 5725 5721 5717 5712 5707 5702 5698 5693 5688 5683 5677 5673 5669 5663 5656 5650 5644 5638 5630 5624 5619 5615 5607 5597 5592 5593 5590 5587 5582 5574 5567 5558 5547 5539 5531 5519 5509 5499 5489 5477 5466 5458 5448 5435 5423
5816 5817 5818 5819 5819 5819 5819 5818 5818 5817 5816 5815 5814 5813 5812 5810 5809 5808 5806 5804 5802 5800 5797 5795 5793 5790 5787 5783 5780 5777 5773 5770 5767 5763 5760 5756 5753 5749 5745 5741 5737 5733 5728 5724 5719 5715 5711 5706 5701 5696 5691 5685 5680 5674 5669 5665 5659 5653 5648 5642 5636 5628 5620 5612 5609 5606 5597 5589 5586 5583 5577 5572 5565 5558 5550 5539 5530 5521 5510 5498 5487 5476 5466 5457 5447 5436 5423 5411
5819 5819 5820 5820 5820 5820 5819 5819 5818 5817 5816 5816 5815 5813 5812 5811 5809 5808 5806 5804 5802 5799 5797 5795 5792 5789 5786 5782 5779 5776 5772 5769 5765 5762 5758 5755 5751 5747 5743 5739 5735 5731 5726 5722 5717 5713 5709 5705 5699 5693 5688 5682 5677 5671 5666 5660 5654 5648 5643 5639 5633 5626 5619 5609 5601 5596 5590 5582 5578 5575 5567 5558 5551 5544 5537 5530 5519 5507 5497 5487 5476 5465 5455 5444 5434 5423 5412 5401
5821 5821 5822 5822 5821 5821 5820 5819 5818 5818 5817 5816 5814 5813 5812 5811 5809 5808 5806 5804 5802 5799 5797 5794 5791 5788 5785 5782 5778 5775 5771 5768 5764 5761 5757 5754 5750 5746 5742 5738 5733 5729 5724 5720 5715 5710 5706 5703 5698 5692 5685 5680 5674 5667 5662 5657 5651 5644 5637 5632 5627 5620 5614 5608 5598 5589 5581 5571 5564 5563 5561 5553 5543 5534 5524 5515 5504 5493 5485 5477 5465 5453 5442 5431 5421 5412 5401 5391
5823 5823 5823 5823 5822 5821 5820 5819 5819 5819 5818 5816 5814 5814 5813 5811 5809 5808 5806 5804 5801 5799 5796 5793 5790 5787 5784 5780 5777 5774 5771 5767 5764 5760 5756 5752 5748 5744 5740 5736 5731 5727 5722 5717 5713 5708 5703 5700 5696 5691 5683 5677 5672 5664 5658 5653 5648 5642 5634 5627 5621 5614 5607 5603 5597 5587 5576 5566 5553 5547 5549 5547 5536 5526 5516 5504 5494 5484 5473 5464 5453 5441 5431 5421 5412 5401 5391 5382
5824 5824 5823 5823 5822 5821 5820 5820 5820 5819 5817 5816 5815 5815 5813 5811 5810 5808 5806 5804 5801 5798 5795 5792 5789 5786 5783 5780 5777 5774 5770 5767 5763 5759 5755 5751 5747 5743 5739 5734 5730 5725 5720 5716 5711 5706 5701 5697 5693 5689 5683 5677 5670 5662 5655 5649 5644 5639 5632 5624 5617 5611 5604 5598 5595 5587 5575 5565 5552 5537 5535 5539 5530 5517 5509 5498 5488 5479 5467 5455 5443 5432 5422 5413 5404 5394 5384 5376
5824 5824 5824 5823 5822 5821 5821 5821 5820 5818 5817 5817 5816 5815 5813 5812 5810 5808 5806 5803 5801 5798 5795 5791 5788 5785 5783 5779 5776 5773 5770 5766 5762 5758 5754 5750 5746 5742 5737 5733 5728 5723 5718 5714 5709 5704 5699 5695 5690 5685 5681 5675 5668 5661 5654 5646 5639 5633 5627 5621 5614 5607 5599 5590 5587 5585 5576 5566 5555 5538 5528 5530 5522 5510 5503 5494 5482 5474 5463 5448 5436 5425 5416 5407 5398 5388 5379 5372
5825 5825 5824 5824 5823 5823 5822 5821 5820 5819 5819 5818 5816 5815 5814 5812 5810 5808 5806 5803 5800 5797 5794 5791 5788 5785 5782 5779 5776 5772 5768 5765 5761 5757 5752 5748 5744 5740 5735 5731 5726 5722 5717 5712 5706 5701 5697 5692 5687 5682 5676 5669 5663 5657 5649 5642 5634 5626 5620 5615 5609 5602 5594 5584 5576 5572 5566 5560 5555 5542 5529 5527 5521 5507 5498 5488 5476 5466 5455 5440 5428 5418 5409 5402 5392 5383 5375 5369
5826 5825 5825 5824 5824 5824 5822 5821 5821 5820 5819 5818 5817 5815 5814 5812 5810 5808 5805 5802 5800 5797 5794 5791 5788 5785 5782 5779 5775 5771 5767 5764 5760 5755 5751 5747 5743 5738 5734 5729 5725 5720 5715 5710 5704 5699 5693 5688 5684 5680 5676 5672 5666 5659 5652 5645 5636 5625 5616 5609 5603 5597 5591 5585 5576 5565 5557 5550 5545 5534 5523 5522 5518 5504 5490 5481 5470 5459 5447 5433 5421 5411 5403 5396 5387 5378 5371 5366
5827 5826 5826 5825 5825 5824 5822 5822 5822 5821 5820 5819 5817 5816 5814 5812 5810 5807 5805 5802 5799 5797 5794 5791 5788 5785 5782 5778 5774 5770 5766 5762 5758 5754 5750 5746 5742 5737 5733 5728 5723 5718 5713 5708 5702 5696 5690 5683 5677 5672 5669 5667 5663 5657 5650 5644 5636 5626 5616 5606 5599 5595 5588 5582 5575 5566 5556 5548 5541 5529 5515 5511 5507 5493 5481 5472 5461 5451 5440 5428 5415 5404 5396 5390 5382 5373 5367 5362
5828 5827 5827 5826 5825 5824 5824 5824 5823 5821 5820 5819 5817 5816 5814 5812 5809 5807 5804 5802 5799 5797 5794 5791 5788 5784 5781 5777 5773 5769 5765 5761 5757 5753 5749 5744 5740 5736 5731 5726 5721 5716 5711 5705 5699 5693 5687 5680 5673 5665 5657 5650 5646 5641 5634 5630 5626 5622 5615 5605 5596 5590 5583 5574 5568 5561 5551 5543 5539 5527 5509 5500 5496 5483 5470 5462 5452 5440 5431 5421 5410 5398 5390 5384 5377 5369 5364 5358
5828 5828 5827 5827 5826 5825 5825 5825 5823 5822 5821 5819 5817 5816 5813 5811 5809 5806 5804 5802 5799 5796 5793 5790 5787 5783 5780 5776 5772 5769 5765 5760 5756 5752 5748 5743 5739 5734 5729 5725 5719 5714 5708 5702 5696 5690 5684 5678 5671 5664 5656 5647 5642 5636 5629 5624 5621 5617 5611 5603 5593 5584 5576 5568 5562 5556 5545 5534 5531 5526 5507 5491 5484 5473 5459 5450 5442 5431 5420 5411 5402 5392 5383 5378 5372 5365 5360 5355
5829 5829 5828 5828 5827 5827 5826 5825 5823 5822 5821 5819 5817 5815 5813 5811 5808 5806 5804 5801 5799 5796 5793 5790 5786 5783 5779 5776 5772 5768 5764 5759 5755 5751 5746 5742 5737 5733 5728 5722 5717 5712 5706 5700 5694 5688 5682 5676 5670 5664 5657 5649 5642 5637 5630 5622 5617 5611 5605 5599 5591 5581 5573 5564 5556 5550 5542 5528 5520 5518 5507 5490 5479 5467 5451 5439 5431 5422 5412 5403 5394 5384 5376 5371 5366 5361 5358 5353
5830 5830 5829 5829 5828 5827 5826 5825 5824 5822 5821 5819 5817 5815 5813 5811 5808 5806 5804 5801 5799 5796 5792 5789 5786 5782 5778 5775 5771 5767 5763 5758 5754 5749 5745 5740 5736 5731 5726 5720 5715 5710 5704 5698 5692 5686 5680 5674 5668 5662 5656 5648 5641 5637 5630 5621 5615 5609 5602 5596 5588 5579 5571 5563 5553 5543 5536 5526 5514 5507 5501 5490 5475 5462 5447 5434 5424 5415 5405 5397 5388 5380 5373 5367 5361 5356 5353 5349
5831 5831 5830 5830 5829 5828 5827 5825 5824 5822 5820 5819 5817 5815 5812 5810 5808 5806 5803 5801 5798 5795 5791 5788 5785 5781 5778 5774 5770 5766 5762 5757 5753 5748 5744 5739 5734 5729 5724 5718 5713 5707 5702 5696 5689 5683 5676 5670 5664 5659 5654 5648 5640 5634 5626 5618 5613 5608 5600 5593 5585 5576 5567 5560 5552 5540 5530 5524 5514 5502 5495 5486 5473 5458 5444 5431 5420 5412 5403 5394 5386 5378 5369 5363 5357 5351 5346 5343
5832 5831 5831 5830 5829 5828 5827 5825 5824 5822 5820 5818 5816 5814 5812 5810 5808 5805 5803 5800 5797 5794 5791 5788 5784 5780 5777 5773 5769 5765 5760 5756 5752 5747 5742 5737 5732 5727 5722 5717 5711 5705 5699 5693 5687 5680 5673 5667 5661 5655 5651 5646 5638 5632 5624 5616 5610 5603 5596 5588 5581 5573 5563 5554 5549 5538 5523 5514 5508 5497 5486 5479 5469 5455 5440 5426 5416 5410 5402 5390 5379 5371 5363 5356 5352 5347 5342 5337
5833 5832 5831 5830 5830 5828 5827 5825 5824 5822 5820 5818 5816 5814 5812 5810 5807 5805 5802 5799 5796 5793 5790 5787 5783 5779 5776 5772 5768 5763 5759 5755 5750 5745 5740 5735 5730 5725 5720 5714 5708 5702 5697 5690 5684 5677 5671 5665 5658 5652 5646 5640 5632 5626 5620 5613 5606 5599 5591 5584 5576 5569 5560 5548 5540 5531 5515 5502 5495 5487 5476 5467 5457 5447 5436 5425 5414 5404 5394 5382 5370 5362 5355 5349 5344 5340 5337 5332
5833 5833 5832 5831 5830 5828 5827 5825 5824 5822 5820 5818 5816 5814 5811 5809 5807 5804 5801 5799 5796 5793 5790 5786 5783 5779 5775 5771 5767 5762 5758 5754 5749 5744 5739 5734 5729 5723 5718 5712 5706 5700 5694 5687 5681 5674 5667 5660 5653 5646 5641 5636 5629 5622 5614 5606 5600 5593 5585 5578 5570 5562 5553 5543 5533 5525 5514 5500 5489 5480 5471 5460 5449 5441 5432 5422 5408 5395 5384 5374 5363 5353 5347 5342 5338 5333 5329 5326